Flag for U.S.A. Weather past 2 weeks in Talkeetna, Alaska, U.S.A.

Now
53 °F

Sunny.


Feels Like: 48 °F
Forecast: 41 / 53 °F
Wind: 17 mph from South

Location: Talkeetna Weather Reporting Station

Current Time: Apr 19, 2015 at 1:18:09 PM

Latest Report: Apr 19, 2015 at 12:53 PM


Visibility: 10 mi

Pressure: 29.47 "Hg

Humidity: 27%

Dew point: 20 °F

Location of TalkeetnaLocation

Historic Weather in Talkeetna — Graph

°F

Talkeetna temperature yesterday

Maximum temperature yesterday: 53 °F (at 2:53 PM)
Minimum temperature yesterday: 38 °F (at 12:53 AM)
Average temperature yesterday: 46 °F

Past Weeks' High & Low Weather Summary

 TemperatureHumidityPressure
High53 °F (Apr 18, 2:53 PM)100% (Apr 6, 3:53 AM)29.95 "Hg (Apr 6, 3:53 AM)
Low23 °F (Apr 14, 5:53 AM)21% (Apr 14, 3:53 PM)28.91 "Hg (Apr 10, 3:53 AM)
Average38 °F63%29.48 "Hg
* Reported Apr 4 11:53 AM — Apr 19 11:53 AM, Talkeetna, Weather by CustomWeather, © 2015

Note: Actual official high and low records may vary slightly from our data, if they occured in-between our weather recording intervals... More about our weather records

Advertising

Talkeetna weather history for previous 24 hours

 ConditionsComfort  
Time TempWeatherWind HumidityBarometerVisibility
11:53 AM
Sun, Apr 19
53 °FPassing clouds.17 mph26%29.46 "Hg10 mi
10:53 AM50 °FSunny.13 mph39%29.44 "Hg10 mi
9:53 AM49 °FSunny.10 mph44%29.43 "Hg10 mi
8:53 AM47 °FMostly cloudy.10 mph52%29.42 "Hg10 mi
7:53 AM41 °FLight rain. Mostly cloudy.3 mph67%29.39 "Hg10 mi
6:53 AM40 °FMostly cloudy.5 mph70%29.36 "Hg10 mi
5:53 AM42 °FOvercast.3 mph62%29.36 "Hg10 mi
4:53 AM40 °FOvercast.3 mph68%29.34 "Hg10 mi
3:53 AM37 °FPassing clouds.5 mph76%29.37 "Hg10 mi
2:53 AM40 °FPassing clouds.No wind68%29.40 "Hg10 mi
1:53 AM44 °FOvercast.No wind58%29.45 "Hg10 mi
12:53 AM48 °FOvercast.5 mph48%29.44 "Hg10 mi
11:53 PM
Sat, Apr 18
44 °FOvercast.No wind55%29.43 "Hg10 mi
10:53 PM47 °FPassing clouds.3 mph48%29.46 "Hg10 mi
9:53 PM47 °FPassing clouds.6 mph48%29.49 "Hg10 mi
8:53 PM51 °FSunny.5 mph39%29.52 "Hg10 mi
7:53 PM52 °FPartly sunny.3 mph38%29.54 "Hg10 mi
6:53 PM53 °FOvercast.5 mph35%29.56 "Hg10 mi
5:53 PM51 °FOvercast.3 mph38%29.59 "Hg10 mi
4:53 PM52 °FBroken clouds.9 mph35%29.60 "Hg10 mi
3:53 PM52 °FOvercast.10 mph35%29.62 "Hg10 mi
2:53 PM53 °FBroken clouds.9 mph32%29.62 "Hg10 mi
1:53 PM51 °FBroken clouds.7 mph33%29.65 "Hg10 mi
Weather by CustomWeather, © 2015

See weather overviewHow to use our weather pages